AirNav   Air Wisconsin Up To $57,000 Bonus
 
 395 users online  

MI34 McLaren Greater Lansing Hospital Heliport
Lansing, Michigan, USA

GOING TO LANSING?


FAA INFORMATION EFFECTIVE 26 MARCH 2020

Location

FAA Identifier: MI34
Lat/Long: 42-42-10.1260N 084-33-10.9230W
42-42.168767N 084-33.182050W
42.7028128,-84.5530342
(estimated)
Elevation: 860 ft. / 262 m (estimated)
Variation: 05W (1985)
Time zone: UTC -4 (UTC -5 during Standard Time)
Zip code: 48910

Heliport Operations

Heliport use: Private use, MEDICAL USE.
Activation date: 01/1975
Control tower: no
ARTCC: CLEVELAND CENTER
FSS: LANSING FLIGHT SERVICE STATION
Attendance: UNATNDD
Wind indicator: yes
Segmented circle: no
Lights: FOR PERIMETER LGTS CALL 517-975-8000 30 MINUTES BEFORE ARRIVAL.

Heliport Communications

WX ASOS at LAN (5 nm N): 119.75 (517-908-8494)
WX AWOS-3 at TEW (10 nm SE): 119.425 (517-676-5607)
WX AWOS-3 at FPK (14 nm SW): 118.075 (517-543-2288)

Nearby radio navigation aids

VOR radial/distance  VOR name  Freq  Var
FNTr252/38.8FLINT VORTAC116.9006W
LFDr019/39.6LITCHFIELD VOR/DME111.2005W

Heliport Services

Runway Information

Helipad H1

Dimensions: 75 x 75 ft. / 23 x 23 m
Surface: concrete
Runway edge lights: PERI
GREEN LGTS.
Latitude: 42-42.168767N
Longitude: 084-33.182050W
Elevation: 860.0 ft.
Traffic pattern: leftleft

Heliport Ownership and Management from official FAA records

Ownership: Publicly-owned
Owner: MCLAREN GREATER LANSING HOSPITAL
401 W. GREENLAWN
LANSING, MI 48910
Phone 517-975-6000
Manager: JUAN ROSA
401 W. GREENLAWN
LANSING, MI 48910
Phone (517) 975-7979

Additional Remarks

A52-H1 LAMP POST S AT 54' & TREES AT 102'; TREE SE AT 135'; PARKING LOT W WITH 10' LAMP POST AT 72'.
FOR CD CTC KALAMAZOO APCH AT 269-459-3345, WHEN APCH CLSD CTC CLEVELAND ARTCC AT 440-774-0224, IF UNA CTC 440-774-0490.

Instrument Procedures

There are no published instrument procedures at MI34.

Some nearby airports with instrument procedures:

KLAN - Capital Region International Airport (5 nm N)
4D0 - Abrams Municipal Airport (9 nm NW)
KTEW - Mason Jewett Field Airport (10 nm SE)
KFPK - Fitch H Beach Airport (14 nm SW)
KRNP - Owosso Community Airport (25 nm NE)
 
Loc | Ops | Rwys | IFR | FBO | Links
Com | Nav | Svcs | Stats | Notes
Area around MI34 (McLaren Greater Lansing Hospital Heliport)
 
Road maps at: MapQuest Bing Google
 
Aerial photo
No photo
 
Sectional chart

 
Airport distance calculator
Flying to McLaren Greater Lansing Hospital Heliport? Find the distance to fly.

From to MI34

Sunrise and sunset
Times for 06-Apr-2020
 Local
(UTC-4)
 Zulu
(UTC)
Morning civil twilight06:4210:42
Sunrise07:1111:11
Sunset20:1000:10
Evening civil twilight20:3900:39

Current date and time
Zulu (UTC)  06-Apr-2020 11:10:42
Local (UTC-4)  06-Apr-2020 07:10:42
 
METAR
KLAN 
5nm N 
061053Z 17006KT 9SM CLR 02/M01 A3016 RMK AO2 SLP217 T00171006
KTEW 
10nm SE 
061055Z AUTO 00000KT 7SM CLR 01/00 A3016 RMK AO2 T00060000
KFPK 
14nm SW 
061056Z AUTO 00000KT 5SM BR CLR 00/M01 A3014 RMK AO2 T10021013
TAF
KLAN 
5nm N 
060540Z 0606/0706 VRB03KT P6SM SKC FM070000 13005KT P6SM OVC050
NOTAMs
Click for the latest NOTAMs
NOTAMs are issued by the DoD/FAA and will open in a separate window not controlled by AirNav.

 

 
 

Would you like to see your business listed on this page?

 If your business provides an interesting product or service to pilots, flight crews, aircraft, or users of the McLaren Greater Lansing Hospital Heliport, you should consider listing it here.  To start the listing process, click on the button below
 
Add a business
 

Other Pages about McLaren Greater Lansing Hospital Heliport

Update a link
 
Copyright © AirNav, LLC. All rights reserved. Privacy Policy  Contact